Jerome, ID

9:05 AM MDT on August 23, 2017 (GMT -0600)
Jerome County

Weather History for KJER - November, 2012

Change the Weather History Date:

Wednesday, November 14, 2012

  Actual Average Record
Temperature  
Mean Temperature 38 °F 37 °F  
Max Temperature 43 °F 46 °F 73 °F (1999)
Min Temperature 33 °F 28 °F 15 °F (1916)
Degree Days  
Heating Degree Days 27 28  
Month to date heating degree days 313 347  
Since 1 July heating degree days 827 1046  
Cooling Degree Days 0 0  
Month to date cooling degree days 0 0  
Year to date cooling degree days 750 510  
Moisture  
Dew Point 35 °F    
Average Humidity 88    
Maximum Humidity 100    
Minimum Humidity 75    
Precipitation  
Precipitation 0.02 in 0.04 in 0.83 in (2006)
Month to date precipitation 0.05 0.46  
Year to date precipitation 7.63 8.56  
Sea Level Pressure  
Sea Level Pressure 30.28 in    
Wind  
Wind Speed 5 mph (West)    
Max Wind Speed 16 mph    
Max Gust Speed 20 mph    
Visibility 8 miles    
Events Fog , Rain    
T = Trace of Precipitation, MM = Missing Value Source: NWS Daily Summary

Daily Weather History Graph

Daily Weather History Graph

Search for Another Location

Airport or City:

Trip Planner

Search our weather history database for the weather conditions in past years. The results will help you decide how hot, cold, wet, or windy it might be!

Date:

Astronomy

Nov. 14, 2012 Rise Set
Actual Time 7:29 AM MST 5:15 PM MST
Civil Twilight 6:58 AM MST 5:45 PM MST
Nautical Twilight 6:24 AM MST 6:19 PM MST
Astronomical Twilight 5:51 AM MST 6:53 PM MST
Moon 8:24 AM MST (11/14) 6:06 PM MST (11/14)
Length of Visible Light 10h 47m
Length of Day
9h 46m
New Moon, 1% of the Moon is Illuminated
Nov 14
New Moon
Nov 20
First Quarter
Nov 28
Full
Dec 6
Last Quarter
Dec 13
New

Hourly Weather History & Observations

Time (MST) Temp. Windchill Dew Point Humidity Pressure Visibility Wind Dir Wind Speed Gust Speed Precip Events Conditions
12:53 AM 34.0 °F 25.5 °F 28.0 °F 79% 30.25 in 10.0 mi NE 11.5 mph - N/A   Overcast
1:53 AM 34.0 °F 25.5 °F 28.0 °F 79% 30.24 in 10.0 mi NE 11.5 mph - N/A   Overcast
2:53 AM 34.0 °F 27.2 °F 28.0 °F 79% 30.24 in 10.0 mi NE 8.1 mph - N/A   Overcast
3:53 AM 33.1 °F 23.9 °F 28.0 °F 82% 30.24 in 10.0 mi NE 12.7 mph - N/A   Overcast
5:53 AM 34.0 °F 28.8 °F 30.0 °F 85% 30.27 in 10.0 mi NE 5.8 mph - 0.00 in   Overcast
6:53 AM 34.0 °F - 30.0 °F 85% 30.28 in 10.0 mi Calm Calm - 0.00 in Rain Light Rain
7:53 AM 34.0 °F - 30.9 °F 89% 30.30 in 10.0 mi Calm Calm - 0.00 in Rain Light Rain
8:26 AM 33.8 °F 30.8 °F 33.8 °F 100% 30.24 in 10.0 mi ENE 3.5 mph - 0.00 in Rain Light Rain
8:53 AM 35.1 °F 30.1 °F 32.0 °F 89% 30.30 in 10.0 mi ESE 5.8 mph - 0.00 in   Overcast
9:53 AM 36.0 °F 33.3 °F 34.0 °F 93% 30.31 in 10.0 mi SSE 3.5 mph - 0.01 in Rain Light Rain
10:53 AM 37.9 °F 35.5 °F 36.0 °F 93% 30.31 in 10.0 mi SW 3.5 mph - 0.00 in Rain Light Rain
11:25 AM 39.2 °F 35.9 °F 35.6 °F 87% 30.26 in 10.0 mi SW 4.6 mph - 0.01 in Rain Light Rain
11:33 AM 39.2 °F 35.0 °F 35.6 °F 87% 30.26 in 10.0 mi WSW 5.8 mph - 0.01 in Rain Light Rain
11:53 AM 39.0 °F 36.8 °F 37.0 °F 93% 30.30 in 10.0 mi SW 3.5 mph - 0.01 in Rain Light Rain
12:53 PM 39.9 °F 35.8 °F 37.9 °F 93% 30.29 in 10.0 mi WSW 5.8 mph - 0.00 in Rain Light Rain
1:53 PM 41.0 °F 36.4 °F 39.0 °F 93% 30.28 in 10.0 mi SW 6.9 mph - 0.00 in   Overcast
2:24 PM 42.8 °F 38.6 °F 39.2 °F 87% 30.24 in 10.0 mi WSW 6.9 mph - N/A   Overcast
2:53 PM 43.0 °F 39.5 °F 37.9 °F 82% 30.27 in 10.0 mi WSW 5.8 mph - N/A   Mostly Cloudy
3:11 PM 42.8 °F 39.3 °F 37.4 °F 81% 30.24 in 10.0 mi WSW 5.8 mph - N/A   Mostly Cloudy
3:45 PM 42.8 °F 39.3 °F 37.4 °F 81% 30.24 in 10.0 mi West 5.8 mph - N/A   Mostly Cloudy
3:53 PM 42.1 °F 38.4 °F 37.9 °F 85% 30.28 in 10.0 mi West 5.8 mph - N/A   Mostly Cloudy
4:07 PM 41.0 °F 38.0 °F 37.4 °F 87% 30.24 in 10.0 mi West 4.6 mph - N/A   Mostly Cloudy
4:26 PM 42.8 °F 38.6 °F 37.4 °F 81% 30.24 in 10.0 mi WSW 6.9 mph - N/A   Mostly Cloudy
4:53 PM 41.0 °F 36.4 °F 37.9 °F 89% 30.29 in 10.0 mi WNW 6.9 mph - N/A   Overcast
5:32 PM 39.2 °F 37.0 °F 37.4 °F 93% 30.25 in 10.0 mi WSW 3.5 mph - N/A   Overcast
5:51 PM 37.4 °F 32.1 °F 35.6 °F 93% 30.25 in 10.0 mi West 6.9 mph - N/A   Scattered Clouds
5:53 PM 37.0 °F 32.4 °F 35.1 °F 93% 30.30 in 10.0 mi West 5.8 mph - N/A   Mostly Cloudy
6:07 PM 37.4 °F 33.8 °F 35.6 °F 93% 30.26 in 10.0 mi WNW 4.6 mph - N/A   Mostly Cloudy
6:39 PM 37.4 °F 34.9 °F 35.6 °F 93% 30.27 in 10.0 mi WNW 3.5 mph - N/A   Overcast
6:53 PM 37.9 °F - 37.0 °F 97% 30.33 in 10.0 mi Calm Calm - N/A   Overcast
7:21 PM 37.4 °F 32.8 °F 37.4 °F 100% 30.29 in 1.8 mi West 5.8 mph - N/A   Overcast
7:33 PM 37.4 °F 32.1 °F 37.4 °F 100% 30.28 in 0.5 mi WSW 6.9 mph - N/A Fog Fog
7:53 PM 37.0 °F 34.5 °F 37.0 °F 100% 30.34 in 0.8 mi West 3.5 mph - N/A   Mist
8:09 PM 37.4 °F 32.8 °F 37.4 °F 100% 30.28 in 2.0 mi West 5.8 mph - N/A   Overcast
8:17 PM 37.4 °F 32.8 °F 37.4 °F 100% 30.28 in 1.5 mi West 5.8 mph - N/A   Overcast
8:23 PM 37.4 °F 32.8 °F 35.6 °F 93% 30.28 in 3.0 mi West 5.8 mph - N/A   Overcast
8:53 PM 37.0 °F 33.3 °F 37.0 °F 100% 30.34 in 2.5 mi West 4.6 mph - N/A   Overcast
9:08 PM 37.4 °F 33.8 °F 35.6 °F 93% 30.30 in 5.0 mi WNW 4.6 mph - N/A   Overcast
9:45 PM 37.4 °F 33.8 °F 35.6 °F 93% 30.30 in 6.0 mi NW 4.6 mph - N/A   Overcast
9:53 PM 37.0 °F 34.5 °F 36.0 °F 96% 30.35 in 6.0 mi NNW 3.5 mph - N/A   Overcast
10:53 PM 37.0 °F 34.5 °F 36.0 °F 96% 30.35 in 5.0 mi NNW 3.5 mph - N/A   Overcast
11:05 PM 37.4 °F 33.8 °F 35.6 °F 93% 30.31 in 2.5 mi NNW 4.6 mph - N/A   Overcast
11:25 PM 37.4 °F 32.8 °F 35.6 °F 93% 30.31 in 4.0 mi NNW 5.8 mph - N/A   Overcast
11:53 PM 37.0 °F 32.4 °F 36.0 °F 96% 30.36 in 6.0 mi NNW 5.8 mph - N/A   Overcast